Regional Weather Roundup
Issued by NWS Kansas City/Pleasant Hill, MO

Home | Current Version | Previous Version | Graphics & Text | Print | Product List | Glossary Off
Versions: 1 2 3 4 5 6 7 8 9 10 11 12 13 14 15 16 17 18 19 20 21 22 23 24 25 26 27 28 29 30 31 32 33 34 35 36 37 38 39 40 41 42 43 44 45 46 47 48 49 50

000
ASUS43 KEAX 260510
RWREAX

WEATHER ROUNDUP FOR EASTERN KANSAS AND NORTHWEST MISSOURI
NATIONAL WEATHER SERVICE KANSAS CITY/PLEASANT HILL MO
1200 AM CDT MON SEP 26 2016

KSZ040-057-103>105-MOZ028-029-037-043-260600-
...KANSAS CITY METROPOLITAN AREA...

CITY           SKY/WX    TMP DP  RH WIND       PRES   REMARKS
K.C. INTL      PTCLDY    59  54  83 W6        30.21R
K.C. DOWNTOWN  CLOUDY    63  56  78 W3        30.20R
LEES SUMMIT    CLOUDY    61  58  90 W3        30.21R
OLATHE - IXD   CLOUDY    61  57  87 W6        30.21S
OLATHE - OJC   CLOUDY    61  56  83 NW5       30.21R
LAWRENCE       PTCLDY    56  56 100 NW5       30.22R

$$

MOZ001>008-011>017-020>025-030>033-038>040-044>046-053-054-260600-
...NORTHERN AND CENTRAL MISSOURI...

CITY           SKY/WX    TMP DP  RH WIND       PRES   REMARKS
ST. JOSEPH     CLEAR     54  51  90 N5        30.21R
MOSBY          CLOUDY    59  59 100 CALM      30.20S
WHITEMAN AFB   MOCLDY    62  61  97 N3        30.18S
CLINTON        CLOUDY    61  59  94 CALM      30.20S
SEDALIA        CLOUDY    62  59  90 NW5       30.20S
WARSAW         NOT AVBL
CHILLICOTHE      N/A     60  57  89 CALM      30.19S
KIRKSVILLE     CLOUDY    59  52  77 CALM      30.16S

$$

MOZ041-047>049-056>058-063>065-088>090-097-260600-
...EASTERN AND SOUTHERN MISSOURI...

CITY           SKY/WX    TMP DP  RH WIND       PRES   REMARKS
ST. LOUIS INTL LGT RAIN  68  56  65 NW15G26   30.10R
SPIRIT OF STL  HVY RAIN  64  59  83 NW10      30.12R
COLUMBIA       LGT RAIN  62  59  90 NW7       30.18R
JEFFERSON CITY LGT RAIN  62  59  90 CALM      30.17R
ROLLA          CLOUDY    62  56  80 NW15      30.16R
OSAGE BEACH    LGT RAIN  60  58  92 VRB3      30.19R
SPRINGFIELD    LGT RAIN  60  56  86 N7        30.19R
BRANSON        CLOUDY    64  61  88 N13G20    30.18R
JOPLIN         CLOUDY    61  59  93 N3          N/A
WEST PLAINS    CLOUDY    71  65  81 NW18G26   30.14R

$$

IAZ060-094-KSZ022-034>040-054-083-096-NEZ052-066-093-260600-
...KANSAS...SOUTHEAST NEBRASKA AND IOWA...

CITY           SKY/WX    TMP DP  RH WIND       PRES   REMARKS
TOPEKA         CLEAR     57  50  77 NW7       30.22S HAZE
MANHATTAN      CLEAR     54  47  77 CALM      30.25S
EMPORIA        CLEAR     57  52  83 NW6       30.24R
CHANUTE        CLOUDY    62  59  90 NW3       30.21R
WICHITA        PTCLDY    57  52  83 NW7       30.26R
OMAHA          CLEAR     56  39  53 N6        30.21S
LINCOLN        CLEAR     48  41  76 N3        30.26S
FALLS CITY     CLEAR     52  49  89 NW6       30.22R
LAMONI         CLEAR     54  50  86 W7        30.17S
DES MOINES     CLEAR     58  47  66 NW10      30.13S

$$




USA.gov is the U.S. government's official web portal to all federal, state and local government web resources and services.